Weather History for Windom, MN

Change the Weather History Date:

Sunday, October 10, 2010

  Actual Average Record
Temperature  
Mean Temperature 63 °F -  
Max Temperature 78 °F 61 °F 84 °F (1955)
Min Temperature 48 °F 35 °F 19 °F (1970)
Degree Days  
Heating Degree Days 2    
Growing Degree Days 13 (Base 50)    
Moisture  
Dew Point 51 °F    
Average Humidity 68    
Maximum Humidity 100    
Minimum Humidity 34    
Precipitation  
Precipitation 0.00 in - - ()
Sea Level Pressure  
Sea Level Pressure 29.89 in    
Wind  
Wind Speed 3 mph (West)    
Max Wind Speed 9 mph    
Max Gust Speed -    
Visibility 10 miles    
Events      
Averages and records for this station are not official NWS values.
T = Trace of Precipitation, MM = Missing Value Source: NWS Daily Summary

Daily Weather History Graph

Daily Weather History Graph

Search for Another Location

Airport:

Trip Planner

Search our weather history database for the weather conditions in past years. The results will help you decide how hot, cold, wet, or windy it might be!

Date:

Astronomy

Oct. 10, 2010 Rise Set
Actual Time 7:28 AM CDT 6:45 PM CDT
Civil Twilight 6:59 AM CDT 7:14 PM CDT
Nautical Twilight 6:26 AM CDT 7:47 PM CDT
Astronomical Twilight 5:53 AM CDT 8:20 PM CDT
Moon 11:11 AM CDT (10/10) 8:19 PM CDT (10/10)
Length of Visible Light 12h 14m
Length of Day
11h 16m
Waxing Crescent, 12% of the Moon is Illuminated
Oct 10
Waxing Crescent
Oct 14
First Quarter
Oct 22
Full
Oct 30
Last Quarter
Nov 5
New

Hourly Weather History & Observations

Time (CDT) Temp. Dew Point Humidity Pressure Visibility Wind Dir Wind Speed Gust Speed Precip Events Conditions
12:13 AM 55.4 °F 50.0 °F 82% 29.92 in 10.0 mi Calm Calm - N/A   Clear
12:33 AM 55.4 °F 51.8 °F 88% 29.92 in 10.0 mi Calm Calm - N/A   Clear
12:52 AM 55.4 °F 48.2 °F 77% 29.91 in 10.0 mi Calm Calm - N/A   Clear
1:06 AM 55.4 °F 48.2 °F 77% 29.90 in 10.0 mi Calm Calm - N/A   Clear
1:33 AM 55.4 °F 48.2 °F 77% 29.90 in 10.0 mi Calm Calm - N/A   Clear
1:53 AM 55.4 °F 50.0 °F 82% 29.90 in 10.0 mi Calm Calm - N/A   Clear
2:13 AM 53.6 °F 48.2 °F 82% 29.90 in 10.0 mi Calm Calm - N/A   Clear
2:33 AM 53.6 °F 50.0 °F 88% 29.91 in 10.0 mi WSW 8.1 mph - N/A   Clear
2:53 AM 53.6 °F 50.0 °F 88% 29.91 in 10.0 mi West 5.8 mph - N/A   Clear
3:13 AM 53.6 °F 48.2 °F 82% 29.90 in 10.0 mi Calm Calm - N/A   Clear
3:33 AM 53.6 °F 48.2 °F 82% 29.90 in 10.0 mi Calm Calm - N/A   Clear
3:53 AM 53.6 °F 48.2 °F 82% 29.91 in 10.0 mi Calm Calm - N/A   Clear
4:13 AM 53.6 °F 50.0 °F 88% 29.91 in 10.0 mi Calm Calm - N/A   Clear
4:33 AM 51.8 °F 48.2 °F 88% 29.91 in 10.0 mi Calm Calm - N/A   Clear
4:53 AM 51.8 °F 48.2 °F 88% 29.91 in 10.0 mi Calm Calm - N/A   Clear
5:13 AM 53.6 °F 48.2 °F 82% 29.91 in 10.0 mi Calm Calm - N/A   Clear
5:33 AM 50.0 °F 48.2 °F 94% 29.91 in 10.0 mi Calm Calm - N/A   Clear
5:53 AM 50.0 °F 48.2 °F 94% 29.91 in 10.0 mi Calm Calm - N/A   Clear
6:13 AM 48.2 °F 48.2 °F 100% 29.91 in 10.0 mi WNW 3.5 mph - N/A   Clear
6:33 AM 48.2 °F 46.4 °F 93% 29.91 in 10.0 mi WNW 5.8 mph - N/A   Clear
6:53 AM 50.0 °F 46.4 °F 87% 29.91 in 10.0 mi WNW 6.9 mph - N/A   Clear
7:13 AM 51.8 °F 48.2 °F 88% 29.90 in 10.0 mi WNW 4.6 mph - N/A   Clear
7:33 AM 53.6 °F 48.2 °F 82% 29.90 in 10.0 mi WNW 5.8 mph - N/A   Clear
7:53 AM 53.6 °F 48.2 °F 82% 29.90 in 10.0 mi West 3.5 mph - N/A   Clear
8:13 AM 53.6 °F 50.0 °F 88% 29.90 in 10.0 mi West 4.6 mph - N/A   Clear
8:33 AM 55.4 °F 51.8 °F 88% 29.90 in 10.0 mi West 3.5 mph - N/A   Clear
8:53 AM 55.4 °F 51.8 °F 88% 29.90 in 10.0 mi Calm Calm - N/A   Clear
9:13 AM 59.0 °F 53.6 °F 82% 29.90 in 10.0 mi Calm Calm - N/A   Clear
9:33 AM 62.6 °F 53.6 °F 72% 29.90 in 10.0 mi Calm Calm - N/A   Clear
9:53 AM 66.2 °F 53.6 °F 64% 29.90 in 10.0 mi NNW 6.9 mph - N/A   Clear
10:13 AM 66.2 °F 53.6 °F 64% 29.90 in 10.0 mi NNW 6.9 mph - N/A   Clear
10:33 AM 66.2 °F 53.6 °F 64% 29.90 in 10.0 mi Calm Calm - N/A   Clear
11:13 AM 69.8 °F 55.4 °F 60% 29.91 in 10.0 mi WSW 4.6 mph - N/A   Clear
11:33 AM 69.8 °F 55.4 °F 60% 29.90 in 10.0 mi WSW 4.6 mph - N/A   Clear
11:53 AM 71.6 °F 53.6 °F 53% 29.90 in 10.0 mi WSW 5.8 mph - N/A   Clear
12:13 PM 71.6 °F 53.6 °F 53% 29.90 in 10.0 mi West 4.6 mph - N/A   Clear
12:33 PM 71.6 °F 55.4 °F 57% 29.90 in 10.0 mi WSW 5.8 mph - N/A   Clear
12:53 PM 73.4 °F 53.6 °F 50% 29.89 in 10.0 mi WSW 6.9 mph - N/A   Clear
1:13 PM 75.2 °F 51.8 °F 44% 29.89 in 10.0 mi West 8.1 mph - N/A   Clear
1:33 PM 75.2 °F 51.8 °F 44% 29.87 in 10.0 mi WSW 9.2 mph - N/A   Clear
1:53 PM 75.2 °F 51.8 °F 44% 29.87 in 10.0 mi West 6.9 mph - N/A   Clear
2:13 PM 77.0 °F 51.8 °F 41% 29.86 in 10.0 mi West 8.1 mph - N/A   Clear
2:33 PM 78.8 °F 51.8 °F 39% 29.85 in 10.0 mi WSW 8.1 mph - N/A   Clear
2:53 PM 77.0 °F 51.8 °F 41% 29.85 in 10.0 mi West 6.9 mph - N/A   Clear
3:13 PM 75.2 °F 50.0 °F 41% 29.85 in 10.0 mi WSW 6.9 mph - N/A   Clear
3:33 PM 78.8 °F 48.2 °F 34% 29.85 in 10.0 mi WSW 5.8 mph - N/A   Clear
3:53 PM 78.8 °F 48.2 °F 34% 29.84 in 10.0 mi West 9.2 mph - N/A   Clear
4:13 PM 77.0 °F 48.2 °F 36% 29.84 in 10.0 mi West 3.5 mph - N/A   Scattered Clouds
4:53 PM 78.8 °F 48.2 °F 34% 29.84 in 10.0 mi WSW 9.2 mph - N/A   Clear
5:13 PM 78.8 °F 50.0 °F 36% 29.84 in 10.0 mi NNW 4.6 mph - N/A   Scattered Clouds
5:33 PM 75.2 °F 53.6 °F 47% 29.84 in 10.0 mi North 6.9 mph - N/A   Scattered Clouds
5:53 PM 73.4 °F 55.4 °F 53% 29.84 in 10.0 mi NNW 6.9 mph - N/A   Scattered Clouds
6:13 PM 71.6 °F 55.4 °F 57% 29.84 in 10.0 mi NNW 4.6 mph - N/A   Clear
6:33 PM 71.6 °F 53.6 °F 53% 29.84 in 10.0 mi NW 3.5 mph - N/A   Clear
6:53 PM 68.0 °F 53.6 °F 60% 29.85 in 10.0 mi NW 3.5 mph - N/A   Clear
7:13 PM 66.2 °F 53.6 °F 64% 29.85 in 10.0 mi Calm Calm - N/A   Clear
7:33 PM 64.4 °F 53.6 °F 68% 29.86 in 10.0 mi Calm Calm - N/A   Clear
7:53 PM 64.4 °F 53.6 °F 68% 29.86 in 10.0 mi Calm Calm - N/A   Clear
8:13 PM 62.6 °F 53.6 °F 72% 29.86 in 10.0 mi Calm Calm - N/A   Scattered Clouds
8:33 PM 62.6 °F 51.8 °F 68% 29.87 in 10.0 mi Calm Calm - N/A   Scattered Clouds
8:53 PM 60.8 °F 51.8 °F 72% 29.87 in 10.0 mi Calm Calm - N/A   Clear
9:13 PM 57.2 °F 51.8 °F 82% 29.87 in 10.0 mi Calm Calm - N/A   Clear
9:33 PM 57.2 °F 53.6 °F 88% 29.87 in 7.0 mi Calm Calm - N/A   Clear
9:53 PM 57.2 °F 53.6 °F 88% 29.87 in 10.0 mi Calm Calm - N/A   Clear
10:13 PM 57.2 °F 51.8 °F 82% 29.87 in 10.0 mi Calm Calm - N/A   Clear
11:13 PM 55.4 °F 51.8 °F 88% 29.86 in 10.0 mi Calm Calm - N/A   Clear
11:33 PM 53.6 °F 50.0 °F 88% 29.86 in 10.0 mi Calm Calm - N/A   Clear
11:53 PM 53.6 °F 50.0 °F 88% 29.86 in 10.0 mi Calm Calm - N/A   Clear